This is the latest recevied weather packets stored in our database for station/object IW1PPB-3. If no packets are shown the sender has not sent any weather packets the latest 10 day(s).
| Time | Temp. | Humidity | Pressure | Rain* | Wind** | Luminosity | Snow |
|---|---|---|---|---|---|---|---|
| 1777744411 | 19.44° C | 60% | 1020.7 hPa | 0 mm | - | - | - |
| 1777743807 | 19.44° C | 60% | 1020.7 hPa | 0 mm | - | - | - |
| 1777743210 | 19.44° C | 62% | 1020.8 hPa | 0 mm | - | - | - |
| 1777742628 | 19.44° C | 60% | 1020.9 hPa | 0 mm | - | - | - |
| 1777742009 | 19.44° C | 62% | 1020.9 hPa | 0 mm | - | - | - |
| 1777741415 | 19.44° C | 57% | 1020.9 hPa | 0 mm | - | - | - |
| 1777740810 | 19.44° C | 58% | 1021 hPa | 0 mm | - | - | - |
| 1777740211 | 19.44° C | 55% | 1021.2 hPa | 0 mm | - | - | - |
| 1777739611 | 19.44° C | 54% | 1021.2 hPa | 0 mm | - | - | - |
| 1777739025 | 20° C | 52% | 1021.4 hPa | 0 mm | - | - | - |
| 1777738410 | 20° C | 51% | 1021.4 hPa | 0 mm | - | - | - |
| 1777737826 | 20° C | 51% | 1021.5 hPa | 0 mm | - | - | - |
| 1777737211 | 19.44° C | 53% | 1021.6 hPa | 0 mm | - | - | - |
| 1777736622 | 19.44° C | 58% | 1021.8 hPa | 0 mm | - | - | - |
| 1777736010 | 19.44° C | 54% | 1021.9 hPa | 0 mm | - | - | - |
| 1777735408 | 19.44° C | 54% | 1022 hPa | 0 mm | - | - | - |
| 1777734807 | 19.44° C | 57% | 1022.1 hPa | 0 mm | - | - | - |
| 1777734210 | 18.89° C | 56% | 1022.4 hPa | 0 mm | - | - | - |
| 1777733626 | 18.89° C | 56% | 1022.4 hPa | 0 mm | - | - | - |
| 1777733012 | 19.44° C | 54% | 1022.5 hPa | 0 mm | - | - | - |
| 1777732429 | 19.44° C | 54% | 1022.8 hPa | 0 mm | - | - | - |
| 1777731815 | 19.44° C | 55% | 1022.9 hPa | 0 mm | - | - | - |
| 1777731205 | 19.44° C | 52% | 1023.1 hPa | 0 mm | - | - | - |
| 1777730619 | 19.44° C | 56% | 1023.2 hPa | 0 mm | - | - | - |
| 1777730003 | 19.44° C | 54% | 1023.3 hPa | 0 mm | - | - | - |
* Rain latest hour (hover to see other rain measurements)
** Current wind speed in m/s (hover to see current wind gust speed)